TIANWANG 1B (TW-1B)
1 40927U 15051C   19336.86156131 +.00010905 +00000-0 +14932-3 0  9994
2 40927 097.1173 022.0033 0009003 116.5592 354.0232 15.57523781236007
TIANWANG 1A (TW-1A)
1 40928U 15051D   19336.81807346 +.00002168 +00000-0 +53403-4 0  9990
2 40928 097.1299 004.3604 0010869 176.9408 293.2637 15.41608537234919
LAPAN A2
1 40931U 15052B   19336.85553783 +.00000814 +00000-0 +24115-4 0  9996
2 40931 005.9950 304.6154 0015306 005.4697 354.4306 14.76623441226009
LQSAT
1 40958U 15057A   19336.93276729 +.00000026 +00000-0 +11680-4 0  9999
2 40958 097.8807 041.4455 0019419 066.6227 293.7021 14.73098756223431
CHUBUSAT 2
1 41338U 16012B   19336.89822990 +.00000241 +00000-0 +11946-4 0  9990
2 41338 031.0018 162.1065 0013918 318.9006 041.0581 15.00215485208048
CHUBUSAT 3
1 41339U 16012C   19336.84840027 +.00000261 +00000-0 +13528-4 0  9997
2 41339 031.0110 160.3029 0013958 326.3453 033.6296 15.00386373208039
OUFTI-1
1 41458U 16025C   19336.69165499 +.00002785 +00000-0 +14295-3 0  9993
2 41458 098.0999 072.0430 0165873 155.1331 205.8005 15.06265782197709
E-STAR-2
1 41459U 16025D   19336.88214743 +.00002797 +00000-0 +14442-3 0  9999
2 41459 098.0999 071.8024 0167355 156.2341 204.6716 15.05878734197708
AAUSAT 4
1 41460U 16025E   19336.90703354 +.00001751 +00000-0 +89979-4 0  9992
2 41460 098.0950 073.5175 0156855 147.0105 214.0995 15.07935092197866
NUSAT 1
1 41557U 16033B   19336.90888220 +.00000948 +00000-0 +37818-4 0  9996
2 41557 097.4130 063.4212 0015219 069.8076 290.4798 15.27573091195611
BEESAT 4
1 41619U 16040W   19336.89179133 +.00001133 +00000-0 +50304-4 0  9999
2 41619 097.3479 035.8442 0012120 148.7106 211.4855 15.23509592179319
PRATHAM
1 41783U 16059A   19336.88899469 +.00000045 +00000-0 +17914-4 0  9992
2 41783 098.0467 032.5900 0032854 216.3015 143.5959 14.63024044169996
ALSAT 1N
1 41789U 16059G   19336.93977194 +.00000084 +00000-0 +24881-4 0  9990
2 41789 098.0491 035.0053 0027875 204.3839 155.6046 14.64280369170127
NAYIF 1
1 42017U 17008BX  19336.87486165 +.00001240 +00000-0 +51132-4 0  9990
2 42017 097.3856 042.1106 0004831 309.4173 050.6637 15.25945467155412
MAX VALIER SAT
1 42778U 17036P   19336.90155994 +.00000744 +00000-0 +35241-4 0  9993
2 42778 097.3340 030.7084 0012207 005.1766 354.9594 15.22281088135673
